QPF
0.00 0.00 0.00 0.00 0.00 0.00 0.00 0.00 0.00 0.00 0.00 0.00 0.00 0.00 0.00 0.00 0.00 0.00 0.00 0.00 0.00 0.00 0.00 0.00 0.00 0.00 0.00 0.00 0.00 0.00 0.03 0.03 0.07 0.06 0.02 0.01 0.00 0.00 0.00 0.00 0.00 0.00 0.00 0.00 0.00
0.00 0.00 0.00 0.00 0.00 0.00 0.00 0.00 0.00 0.00 0.00 0.00 0.00 0.00 0.00 0.00 0.00 0.00 0.00 0.00 0.00 0.00 0.00 0.00 0.00 0.00 0.00 0.00 0.00 0.02 0.05 0.01 0.02 0.03 0.00 0.00 0.00 0.00 0.00 0.00 0.00 0.00 0.00 0.00 0.00
0.00 0.00 0.00 0.00 0.00 0.00 0.00 0.00 0.00 0.00 0.00 0.00 0.00 0.00 0.00 0.00 0.00 0.00 0.00 0.00 0.00 0.00 0.00 0.00 0.00 0.00 0.00 0.00 0.00 0.00 0.02 0.00 0.05 0.01 0.00 0.00 0.00 0.00 0.00 0.00 0.00 0.00 0.00 0.00 0.00
0.00 0.00 0.00 0.00 0.00 0.00 0.00 0.00 0.00 0.00 0.00 0.00 0.00 0.00 0.00 0.00 0.00 0.00 0.00 0.00 0.00 0.00 0.00 0.00 0.00 0.00 0.00 0.00 0.00 0.01 0.00 0.00 0.03 0.01 0.01 0.01 0.00 0.00 0.00 0.00 0.00 0.00 0.00 0.00 0.00
0.00 0.00 0.00 0.00 0.00 0.00 0.00 0.00 0.00 0.00 0.00 0.00 0.00 0.00 0.00 0.00 0.00 0.00 0.00 0.00 0.00 0.00 0.00 0.00 0.00 0.00 0.00 0.00 0.00 0.00 0.00 0.01 0.02 0.00 0.06 0.02 0.00 0.00 0.00 0.00 0.00 0.00 0.00 0.00 0.00
0.00 0.00 0.00 0.00 0.00 0.00 0.00 0.00 0.00 0.00 0.00 0.00 0.00 0.00 0.00 0.00 0.00 0.00 0.00 0.00 0.00 0.00 0.00 0.00 0.00 0.00 0.00 0.00 0.00 0.00 0.00 0.01 0.03 0.02 0.05 0.01 0.00 0.02 0.00 0.00 0.00 0.00 0.00 0.00 0.00
0.00 0.00 0.00 0.00 0.00 0.00 0.00 0.00 0.00 0.00 0.00 0.00 0.00 0.00 0.00 0.00 0.00 0.00 0.00 0.00 0.00 0.00 0.00 0.00 0.00 0.00 0.00 0.00 0.00 0.00 0.00 0.04 0.09 0.06 0.05 0.00 0.01 0.04 0.00 0.00 0.00 0.00 0.00 0.00 0.00
0.00 0.00 0.00 0.00 0.00 0.00 0.00 0.00 0.00 0.00 0.00 0.00 0.00 0.00 0.00 0.00 0.00 0.00 0.00 0.00 0.00 0.00 0.00 0.00 0.00 0.00 0.00 0.00 0.00 0.00 0.00 0.03 0.13 0.13 0.03 0.03 0.03 0.05 0.01 0.00 0.00 0.00 0.00 0.00 0.00
0.00 0.00 0.00 0.00 0.00 0.00 0.00 0.00 0.00 0.00 0.00 0.00 0.00 0.00 0.00 0.00 0.00 0.00 0.00 0.00 0.00 0.00 0.00 0.00 0.00 0.00 0.00 0.00 0.00 0.00 0.00 0.04 0.11 0.22 0.05 0.07 0.06 0.04 0.03 0.00 0.00 0.00 0.00 0.00 0.00
0.00 0.00 0.00 0.00 0.00 0.00 0.00 0.00 0.00 0.00 0.00 0.00 0.00 0.00 0.00 0.00 0.00 0.00 0.00 0.00 0.00 0.00 0.00 0.00 0.00 0.00 0.00 0.00 0.00 0.00 0.00 0.06 0.22 0.13 0.09 0.06 0.03 0.03 0.04 0.01 0.00 0.00 0.00 0.00 0.00
0.00 0.00 0.00 0.00 0.00 0.00 0.00 0.00 0.00 0.00 0.00 0.00 0.00 0.00 0.00 0.00 0.00 0.00 0.00 0.00 0.00 0.00 0.00 0.00 0.00 0.00 0.00 0.00 0.00 0.00 0.00 0.06 0.25 0.17 0.15 0.08 0.00 0.00 0.03 0.02 0.00 0.00 0.00 0.00 0.00
0.00 0.00 0.00 0.00 0.00 0.00 0.00 0.00 0.00 0.00 0.00 0.00 0.00 0.00 0.00 0.00 0.00 0.00 0.00 0.00 0.00 0.00 0.00 0.00 0.00 0.00 0.00 0.00 0.00 0.00 0.00 0.06 0.16 0.03 0.03 0.01 0.02 0.04 0.04 0.03 0.01 0.00 0.00 0.00 0.00
0.00 0.00 0.00 0.00 0.00 0.00 0.00 0.00 0.00 0.00 0.00 0.00 0.00 0.00 0.00 0.00 0.00 0.00 0.00 0.00 0.00 0.00 0.00 0.00 0.00 0.00 0.00 0.00 0.00 0.00 0.00 0.01 0.05 0.01 0.01 0.02 0.07 0.09 0.05 0.09 0.02 0.00 0.00 0.00 0.00
0.00 0.00 0.00 0.00 0.00 0.00 0.00 0.00 0.00 0.00 0.00 0.00 0.00 0.00 0.00 0.00 0.00 0.00 0.00 0.00 0.00 0.00 0.00 0.00 0.00 0.00 0.00 0.00 0.00 0.00 0.00 0.00 0.00 0.00 0.03 0.01 0.01 0.05 0.05 0.04 0.03 0.00 0.00 0.00 0.00
0.00 0.00 0.00 0.00 0.00 0.00 0.00 0.00 0.00 0.00 0.00 0.00 0.00 0.00 0.00 0.00 0.00 0.00 0.00 0.00 0.00 0.00 0.00 0.00 0.00 0.00 0.00 0.00 0.00 0.00 0.00 0.00 0.00 0.00 0.00 0.00 0.00 0.01 0.05 0.05 0.01 0.00 0.00 0.00 0.00
0.00 0.00 0.00 0.00 0.00 0.00 0.00 0.00 0.00 0.00 0.00 0.00 0.00 0.00 0.00 0.00 0.00 0.00 0.00 0.00 0.00 0.00 0.00 0.00 0.00 0.00 0.00 0.00 0.00 0.00 0.00 0.00 0.00 0.00 0.00 0.00 0.00 0.00 0.00 0.00 0.01 0.00 0.00 0.00 0.00
0.00 0.00 0.00 0.00 0.00 0.00 0.00 0.00 0.00 0.00 0.00 0.00 0.00 0.00 0.00 0.00 0.00 0.00 0.00 0.00 0.00 0.00 0.00 0.00 0.00 0.00 0.00 0.00 0.00 0.00 0.00 0.00 0.00 0.00 0.00 0.00 0.00 0.00 0.00 0.00 0.00 0.00 0.00 0.00 0.00
0.00 0.00 0.00 0.00 0.00 0.00 0.00 0.00 0.00 0.00 0.00 0.00 0.00 0.00 0.00 0.00 0.00 0.00 0.00 0.00 0.00 0.00 0.00 0.00 0.00 0.00 0.00 0.00 0.00 0.00 0.00 0.00 0.00 0.00 0.00 0.00 0.00 0.00 0.00 0.00 0.00 0.00 0.00 0.00 0.00
0.00 0.00 0.00 0.00 0.00 0.00 0.00 0.00 0.00 0.00 0.00 0.00 0.00 0.00 0.00 0.00 0.00 0.00 0.00 0.00 0.00 0.00 0.00 0.00 0.00 0.00 0.00 0.00 0.00 0.00 0.00 0.00 0.00 0.00 0.00 0.00 0.00 0.00 0.00 0.00 0.00 0.00 0.00 0.00 0.00
0.00 0.00 0.00 0.00 0.00 0.00 0.00 0.00 0.00 0.00 0.00 0.00 0.00 0.00 0.00 0.00 0.00 0.00 0.00 0.00 0.00 0.00 0.00 0.00 0.00 0.00 0.00 0.00 0.00 0.00 0.00 0.00 0.00 0.00 0.00 0.00 0.00 0.00 0.00 0.00 0.00 0.00 0.00 0.00 0.00
0.00 0.00 0.00 0.00 0.00 0.00 0.00 0.00 0.00 0.00 0.00 0.00 0.00 0.00 0.00 0.00 0.00 0.01 0.00 0.00 0.00 0.00 0.00 0.00 0.00 0.00 0.00 0.00 0.00 0.00 0.00 0.00 0.00 0.00 0.00 0.00 0.00 0.00 0.00 0.00 0.00 0.00 0.00 0.00 0.00
0.00 0.00 0.00 0.00 0.00 0.00 0.00 0.00 0.00 0.00 0.00 0.00 0.00 0.00 0.00 0.00 0.00 0.00 0.00 0.00 0.00 0.00 0.00 0.00 0.00 0.00 0.00 0.00 0.00 0.00 0.00 0.00 0.00 0.00 0.00 0.00 0.01 0.00 0.00 0.00 0.00 0.00 0.00 0.00 0.00
0.00 0.00 0.00 0.00 0.00 0.00 0.00 0.00 0.00 0.00 0.00 0.00 0.00 0.00 0.00 0.00 0.00 0.00 0.00 0.00 0.00 0.00 0.00 0.00 0.00 0.00 0.00 0.00 0.00 0.00 0.00 0.00 0.00 0.00 0.00 0.00 0.00 0.00 0.00 0.00 0.00 0.00 0.00 0.00 0.00
0.00 0.00 0.00 0.00 0.00 0.00 0.00 0.00 0.00 0.00 0.00 0.00 0.00 0.00 0.00 0.00 0.01 0.00 0.00 0.00 0.00 0.00 0.00 0.00 0.00 0.00 0.00 0.00 0.00 0.00 0.00 0.00 0.00 0.00 0.00 0.00 0.00 0.00 0.00 0.00 0.00 0.00 0.00 0.01 0.01
0.00 0.00 0.00 0.00 0.00 0.00 0.00 0.00 0.00 0.00 0.00 0.00 0.00 0.00 0.00 0.00 0.00 0.00 0.00 0.00 0.00 0.00 0.00 0.00 0.00 0.00 0.00 0.00 0.00 0.00 0.00 0.00 0.00 0.00 0.00 0.00 0.00 0.00 0.00 0.00 0.00 0.01 0.01 0.02 0.07
0.00 0.00 0.00 0.00 0.00 0.00 0.00 0.00 0.00 0.00 0.00 0.00 0.00 0.00 0.00 0.00 0.00 0.00 0.00 0.00 0.00 0.00 0.00 0.00 0.00 0.00 0.00 0.00 0.00 0.00 0.00 0.00 0.00 0.00 0.00 0.00 0.00 0.00 0.00 0.00 0.00 0.01 0.03 0.09 0.05
0.00 0.00 0.00 0.00 0.00 0.00 0.00 0.00 0.00 0.00 0.00 0.00 0.00 0.00 0.00 0.00 0.00 0.00 0.00 0.00 0.00 0.00 0.00 0.00 0.00 0.00 0.00 0.00 0.00 0.00 0.00 0.00 0.00 0.00 0.00 0.00 0.00 0.00 0.00 0.00 0.01 0.02 0.04 0.06 0.10
MSLP
1018.06 1017.84 1017.62 1017.41 1017.22 1017.09 1016.93 1016.83 1016.68 1016.54 1016.39 1016.18 1015.96 1015.72 1015.45 1015.23 1014.76 1014.05 1011.90 1010.70 1010.82 1011.37 1011.47 1010.87 1010.45 1010.05 1009.86 1009.18 1009.36 1009.86 1009.85 1009.96 1010.80 1011.09 1011.94 1012.24 1011.39 1011.35 1011.28 1011.21 1010.99 1011.43 1011.76 1013.59 1014.47
1017.91 1017.74 1017.55 1017.34 1017.13 1016.99 1016.90 1016.75 1016.64 1016.53 1016.41 1016.22 1015.99 1015.73 1015.36 1015.02 1013.78 1011.93 1010.28 1010.87 1011.19 1011.18 1010.64 1010.15 1009.67 1009.63 1008.95 1008.72 1008.80 1009.06 1009.18 1009.96 1010.69 1011.52 1011.95 1012.46 1011.71 1011.42 1011.25 1011.34 1011.44 1011.74 1013.01 1014.11 1014.61
1017.69 1017.49 1017.32 1017.15 1016.92 1016.73 1016.62 1016.56 1016.53 1016.45 1016.40 1016.23 1016.01 1015.73 1015.33 1014.66 1012.48 1009.28 1010.17 1010.57 1011.05 1010.93 1009.92 1009.58 1009.32 1009.10 1008.34 1008.21 1008.25 1008.73 1008.89 1009.77 1010.78 1011.47 1012.36 1012.49 1012.11 1011.60 1011.23 1011.17 1011.50 1011.90 1013.00 1014.05 1014.55
1017.47 1017.32 1017.19 1016.99 1016.80 1016.63 1016.50 1016.40 1016.32 1016.24 1016.21 1016.18 1015.96 1015.64 1015.21 1013.84 1010.48 1009.49 1010.10 1010.26 1010.80 1010.22 1009.65 1009.46 1009.18 1008.57 1007.69 1007.57 1007.83 1008.25 1009.11 1010.05 1011.29 1012.23 1012.79 1013.17 1012.65 1012.33 1011.60 1010.96 1011.46 1012.46 1013.05 1013.81 1014.36
1017.40 1017.17 1016.99 1016.83 1016.74 1016.57 1016.39 1016.24 1016.07 1016.13 1016.04 1015.91 1015.77 1015.58 1014.76 1012.25 1009.57 1009.51 1010.23 1010.39 1010.35 1009.95 1009.19 1008.94 1008.72 1008.09 1007.43 1007.14 1007.72 1007.69 1009.05 1010.15 1011.58 1012.24 1013.34 1013.56 1013.16 1012.93 1011.94 1011.73 1011.84 1012.86 1013.52 1013.72 1014.08
1017.32 1017.08 1016.88 1016.70 1016.57 1016.40 1016.23 1016.14 1016.14 1015.97 1015.83 1015.82 1015.61 1015.49 1013.75 1010.62 1009.40 1009.40 1009.34 1009.82 1009.58 1009.43 1008.89 1008.72 1008.31 1007.99 1007.22 1007.07 1007.21 1007.72 1008.75 1010.24 1011.87 1013.36 1014.06 1014.08 1014.09 1013.29 1012.55 1012.27 1012.53 1013.14 1013.41 1013.69 1014.04
1017.20 1016.91 1016.67 1016.49 1016.33 1016.16 1015.92 1015.92 1015.85 1015.63 1015.76 1015.70 1015.50 1014.82 1012.49 1009.62 1009.70 1009.44 1009.30 1009.28 1009.34 1008.90 1008.65 1008.60 1008.46 1008.32 1007.31 1006.89 1007.39 1007.73 1008.51 1009.94 1012.07 1013.32 1014.41 1014.70 1014.73 1013.87 1013.07 1012.82 1012.88 1013.08 1013.36 1013.72 1014.16
1017.15 1016.83 1016.58 1016.33 1016.17 1016.05 1016.00 1015.83 1015.63 1015.46 1015.19 1015.30 1015.32 1014.18 1010.48 1009.81 1009.83 1009.60 1009.60 1009.61 1009.55 1009.52 1008.90 1009.09 1008.76 1008.10 1007.48 1007.15 1007.13 1006.99 1008.00 1008.74 1011.76 1013.36 1014.25 1014.63 1014.55 1014.32 1013.63 1013.10 1013.02 1013.15 1013.37 1013.75 1014.25
1017.05 1016.76 1016.45 1016.19 1016.02 1015.91 1015.68 1015.50 1015.30 1015.22 1015.04 1014.93 1014.44 1013.10 1009.32 1010.07 1009.38 1009.23 1009.25 1009.21 1009.47 1009.42 1009.48 1009.40 1008.89 1007.79 1007.48 1006.62 1006.11 1006.10 1005.93 1008.35 1011.21 1012.70 1013.18 1014.09 1014.25 1014.88 1014.75 1013.88 1013.11 1013.14 1013.24 1013.63 1014.16
1016.90 1016.65 1016.41 1016.16 1015.87 1015.73 1015.52 1015.17 1014.96 1014.80 1014.61 1014.07 1013.43 1012.29 1009.31 1008.51 1008.89 1009.12 1009.32 1009.24 1009.06 1009.08 1009.13 1009.05 1008.37 1007.44 1006.55 1005.71 1004.47 1004.53 1005.19 1006.97 1009.29 1011.55 1012.45 1012.84 1013.69 1014.82 1015.06 1014.36 1013.16 1012.93 1013.08 1013.32 1013.85
1016.82 1016.60 1016.23 1015.95 1015.84 1015.62 1014.96 1014.38 1013.97 1013.31 1012.34 1010.84 1010.22 1009.53 1008.71 1008.76 1008.98 1008.96 1009.10 1009.06 1008.97 1008.83 1007.85 1008.22 1007.40 1005.98 1005.43 1005.26 1005.09 1004.42 1004.77 1005.83 1008.37 1010.45 1011.79 1012.42 1013.52 1014.23 1014.83 1014.56 1012.98 1012.72 1012.70 1012.89 1013.28
1016.70 1016.42 1016.15 1015.83 1015.67 1015.62 1015.04 1012.28 1011.32 1011.32 1010.01 1009.50 1009.59 1009.39 1009.05 1008.72 1008.19 1008.66 1008.81 1008.29 1008.45 1007.77 1007.47 1007.80 1006.52 1005.75 1005.53 1005.72 1005.52 1004.81 1004.64 1005.70 1008.20 1009.80 1010.89 1011.93 1012.10 1012.86 1014.12 1013.69 1012.45 1012.38 1012.32 1012.48 1012.79
1016.46 1016.23 1015.94 1015.68 1015.53 1015.24 1013.06 1011.54 1011.15 1010.86 1009.41 1008.58 1008.45 1008.07 1008.01 1008.33 1007.26 1008.05 1008.39 1007.72 1007.70 1007.23 1007.06 1005.94 1005.46 1005.86 1006.08 1005.75 1005.22 1004.44 1004.14 1005.23 1006.41 1008.72 1009.17 1010.36 1011.55 1012.37 1013.74 1013.62 1012.21 1012.08 1012.03 1012.38 1012.55
1016.26 1015.99 1015.75 1015.53 1015.68 1013.01 1011.62 1011.25 1011.16 1010.91 1008.09 1007.80 1007.31 1007.66 1007.87 1007.38 1007.04 1007.61 1007.88 1007.35 1007.33 1006.90 1006.80 1005.82 1006.10 1006.10 1005.92 1005.17 1004.93 1004.20 1005.09 1005.34 1006.26 1006.77 1007.36 1008.49 1010.09 1011.06 1012.55 1012.69 1012.11 1011.52 1011.52 1011.51 1011.91
1015.93 1015.71 1015.48 1015.54 1013.61 1011.96 1011.32 1011.08 1010.93 1010.44 1007.37 1007.53 1006.87 1007.38 1007.08 1006.75 1006.63 1007.35 1007.53 1007.30 1006.60 1006.51 1006.85 1005.61 1005.78 1005.82 1005.42 1005.08 1005.23 1004.54 1005.32 1005.21 1005.58 1005.50 1006.40 1007.44 1008.51 1010.07 1011.35 1011.96 1012.13 1011.39 1011.10 1010.89 1011.19
1015.70 1015.51 1015.30 1014.49 1013.44 1011.52 1011.32 1011.03 1010.72 1008.83 1007.43 1006.98 1006.83 1006.62 1006.49 1006.32 1006.19 1006.89 1007.27 1007.38 1006.55 1006.44 1006.60 1005.61 1005.82 1005.62 1005.09 1005.27 1005.68 1005.75 1005.36 1005.33 1005.67 1005.00 1004.97 1005.15 1005.87 1008.19 1009.13 1009.12 1010.08 1011.08 1011.24 1010.68 1010.73
1015.26 1014.99 1014.97 1013.07 1011.22 1011.47 1011.24 1010.29 1008.23 1007.13 1008.06 1007.40 1006.77 1006.50 1006.07 1005.69 1005.99 1006.58 1006.68 1006.49 1005.89 1005.94 1005.68 1005.89 1005.82 1005.57 1005.30 1005.39 1005.64 1005.46 1004.89 1004.56 1004.50 1004.33 1003.45 1004.74 1005.43 1005.03 1006.67 1007.70 1008.42 1009.32 1010.37 1010.58 1010.66
1014.61 1014.20 1013.70 1012.27 1011.77 1011.57 1010.58 1008.64 1007.63 1008.20 1007.56 1007.58 1007.08 1006.52 1005.76 1005.67 1005.47 1006.02 1006.17 1005.77 1005.99 1005.30 1004.57 1004.98 1005.28 1005.22 1005.43 1004.75 1004.72 1005.10 1004.42 1003.60 1003.11 1002.53 1002.65 1004.69 1004.48 1005.06 1006.12 1006.67 1007.77 1008.98 1010.10 1010.34 1010.40
1014.07 1012.76 1011.80 1011.26 1011.53 1011.46 1009.51 1007.63 1008.15 1008.21 1008.29 1007.73 1006.79 1006.20 1005.76 1005.97 1005.71 1005.73 1005.73 1005.32 1005.46 1005.48 1004.76 1004.48 1004.33 1004.61 1004.86 1005.00 1004.60 1004.54 1004.08 1003.84 1003.21 1002.10 1002.19 1002.73 1004.15 1006.04 1006.47 1006.80 1007.24 1008.12 1009.63 1010.82 1010.39
1012.72 1011.04 1010.65 1011.04 1011.11 1010.19 1008.33 1008.70 1008.69 1009.06 1008.82 1008.09 1007.13 1007.14 1006.02 1005.78 1005.88 1005.46 1005.46 1005.37 1005.30 1005.64 1005.55 1004.92 1004.41 1004.58 1004.62 1004.82 1004.67 1003.82 1004.28 1003.78 1003.03 1001.73 1001.94 1002.07 1003.18 1003.55 1005.87 1006.08 1006.87 1007.67 1008.92 1010.51 1011.24
1012.26 1009.83 1010.51 1010.67 1010.41 1008.57 1008.16 1008.95 1009.16 1009.13 1009.28 1008.59 1007.96 1007.39 1007.22 1006.66 1006.09 1005.67 1005.86 1006.35 1006.27 1005.98 1006.18 1005.29 1004.69 1004.18 1004.10 1004.06 1003.45 1004.27 1003.59 1003.24 1002.44 1002.30 1001.32 1001.59 1002.49 1004.00 1005.76 1006.47 1006.78 1007.66 1008.90 1010.00 1010.99
1011.06 1009.10 1010.31 1010.28 1008.82 1009.03 1008.72 1009.58 1010.36 1009.26 1009.15 1008.93 1008.67 1008.35 1008.06 1007.94 1007.08 1006.68 1007.07 1006.81 1007.42 1006.55 1006.14 1006.01 1004.81 1003.67 1003.79 1003.61 1003.43 1003.20 1003.08 1003.10 1002.42 1002.26 1002.42 1002.29 1003.56 1005.35 1006.12 1007.14 1007.49 1008.16 1009.12 1009.87 1010.55
1010.47 1009.61 1010.01 1009.70 1008.29 1008.52 1009.51 1009.54 1009.86 1009.39 1009.38 1009.19 1008.76 1008.95 1008.86 1008.59 1008.67 1008.47 1008.40 1008.09 1007.77 1007.02 1006.64 1006.28 1005.31 1004.14 1003.84 1004.18 1004.04 1003.06 1002.64 1002.40 1002.49 1002.16 1001.88 1002.55 1003.44 1005.83 1007.00 1007.79 1008.78 1009.77 1010.58 1010.90 1011.42
1010.99 1009.25 1009.33 1009.37 1009.59 1009.04 1009.21 1009.47 1009.48 1010.01 1009.76 1009.78 1009.47 1009.37 1009.04 1009.07 1009.24 1009.06 1008.80 1008.30 1008.41 1007.91 1008.18 1007.64 1005.55 1004.43 1003.47 1002.45 1002.74 1003.09 1002.98 1003.04 1002.17 1001.89 1001.64 1002.10 1003.51 1005.85 1007.05 1008.44 1010.05 1011.03 1011.68 1012.14 1012.25
1011.15 1009.85 1010.13 1008.92 1009.28 1009.50 1009.67 1009.89 1009.75 1009.85 1010.00 1009.94 1009.64 1009.58 1009.41 1008.90 1008.87 1009.26 1010.07 1009.05 1008.58 1008.77 1008.20 1007.39 1006.24 1005.48 1004.82 1004.24 1003.66 1003.19 1003.27 1003.17 1002.89 1002.52 1001.92 1001.94 1002.97 1004.63 1006.81 1008.32 1010.31 1011.44 1012.31 1012.80 1013.26
1010.88 1010.07 1010.34 1010.02 1010.19 1009.77 1010.29 1010.15 1010.17 1010.36 1010.40 1010.10 1010.08 1010.11 1009.78 1009.86 1009.84 1009.43 1009.87 1009.61 1009.37 1008.78 1008.00 1007.68 1007.22 1006.43 1005.84 1005.54 1004.69 1004.41 1004.39 1003.85 1003.81 1003.58 1003.32 1003.54 1004.33 1006.03 1007.60 1009.18 1010.69 1012.14 1013.14 1013.73 1014.33
1012.17 1011.50 1010.39 1010.43 1010.01 1009.71 1010.02 1010.43 1010.70 1010.93 1011.06 1011.00 1010.91 1010.51 1010.18 1010.74 1010.67 1010.48 1010.45 1010.31 1010.45 1010.02 1008.77 1008.68 1007.91 1007.04 1006.01 1006.53 1006.10 1005.82 1006.26 1005.59 1005.41 1005.37 1004.81 1004.65 1005.81 1007.26 1008.89 1010.46 1012.08 1013.17 1014.01 1014.74 1015.25
Thickness
5711 5709 5708 5707 5707 5707 5707 5707 5709 5710 5713 5715 5720 5725 5729 5733 5738 5746 5756 5773 5775 5775 5778 5783 5785 5788 5791 5789 5793 5790 5768 5763 5755 5749 5746 5763 5770 5780 5787 5780 5788 5790 5788 5777 5775
5709 5707 5705 5704 5703 5703 5702 5702 5703 5704 5707 5709 5713 5718 5725 5730 5742 5753 5774 5770 5770 5774 5778 5776 5776 5783 5782 5786 5789 5779 5768 5765 5772 5762 5753 5760 5769 5773 5776 5774 5776 5782 5782 5778 5773
5707 5705 5703 5701 5700 5700 5699 5699 5698 5698 5699 5704 5707 5711 5718 5726 5742 5769 5772 5770 5768 5772 5783 5786 5786 5783 5779 5789 5788 5782 5769 5778 5770 5768 5759 5755 5765 5779 5774 5768 5775 5772 5773 5775 5772
5705 5702 5700 5699 5697 5696 5695 5694 5693 5693 5694 5696 5701 5705 5712 5727 5742 5767 5769 5771 5768 5775 5781 5777 5777 5772 5778 5776 5792 5774 5781 5776 5761 5760 5752 5746 5765 5764 5774 5783 5789 5783 5777 5776 5772
5700 5699 5697 5695 5693 5691 5690 5689 5689 5687 5687 5690 5694 5699 5711 5727 5745 5763 5763 5765 5768 5773 5774 5772 5769 5774 5771 5786 5785 5783 5776 5776 5763 5762 5752 5756 5758 5760 5772 5784 5789 5782 5777 5775 5776
5697 5695 5692 5690 5688 5686 5685 5683 5681 5681 5682 5683 5687 5692 5708 5722 5752 5757 5763 5764 5768 5769 5772 5776 5773 5782 5783 5785 5783 5788 5782 5772 5759 5745 5744 5744 5746 5760 5771 5782 5779 5775 5775 5777 5776
5693 5690 5688 5686 5683 5682 5681 5679 5677 5678 5675 5677 5682 5689 5704 5728 5743 5750 5757 5760 5765 5770 5766 5777 5780 5773 5787 5782 5792 5787 5772 5772 5752 5742 5737 5742 5734 5745 5769 5776 5772 5774 5776 5777 5777
5688 5685 5683 5681 5680 5678 5675 5674 5674 5674 5676 5674 5676 5687 5710 5730 5735 5742 5748 5749 5759 5764 5771 5775 5780 5777 5780 5792 5785 5779 5777 5765 5751 5737 5736 5741 5730 5746 5768 5771 5769 5772 5774 5776 5775
5683 5680 5678 5678 5676 5674 5674 5672 5671 5669 5670 5671 5677 5685 5710 5724 5726 5738 5744 5740 5747 5756 5763 5769 5772 5770 5777 5773 5772 5781 5774 5761 5743 5751 5747 5738 5736 5742 5752 5761 5766 5770 5773 5775 5775
5679 5676 5674 5673 5672 5670 5669 5668 5666 5666 5666 5671 5676 5679 5710 5715 5724 5730 5739 5741 5740 5746 5746 5752 5758 5758 5771 5774 5761 5776 5780 5779 5751 5751 5755 5756 5746 5738 5741 5751 5764 5771 5774 5775 5775
5675 5672 5671 5670 5668 5667 5668 5671 5672 5670 5673 5686 5693 5694 5705 5716 5723 5720 5731 5731 5735 5734 5734 5746 5744 5751 5771 5779 5780 5791 5789 5782 5770 5754 5750 5751 5742 5743 5739 5745 5765 5770 5775 5776 5777
5671 5669 5667 5667 5665 5662 5664 5677 5679 5676 5675 5690 5687 5690 5701 5710 5704 5713 5728 5721 5721 5721 5739 5733 5737 5766 5776 5774 5772 5781 5783 5777 5763 5761 5752 5744 5754 5759 5742 5746 5770 5773 5775 5778 5781
5669 5666 5665 5664 5663 5664 5675 5678 5680 5680 5674 5685 5691 5694 5698 5704 5707 5705 5718 5723 5718 5722 5729 5740 5756 5763 5758 5761 5766 5781 5783 5776 5771 5763 5772 5759 5742 5749 5740 5745 5772 5778 5781 5780 5780
5667 5665 5664 5664 5664 5679 5679 5681 5678 5678 5680 5677 5688 5690 5696 5706 5699 5717 5720 5720 5716 5717 5728 5739 5749 5748 5750 5759 5772 5767 5780 5779 5769 5768 5747 5777 5721 5750 5742 5747 5762 5776 5781 5785 5785
5666 5665 5664 5662 5677 5680 5681 5680 5680 5677 5660 5682 5687 5703 5702 5698 5705 5702 5720 5716 5710 5717 5722 5729 5736 5739 5743 5756 5769 5766 5777 5776 5775 5776 5769 5763 5744 5742 5747 5736 5744 5768 5779 5788 5792
5666 5664 5664 5668 5672 5683 5681 5681 5678 5668 5646 5674 5686 5684 5687 5697 5701 5705 5704 5716 5725 5717 5720 5728 5749 5747 5754 5762 5761 5768 5768 5769 5769 5776 5756 5781 5780 5748 5752 5766 5766 5765 5772 5786 5792
5667 5667 5666 5676 5687 5682 5681 5681 5676 5666 5677 5668 5673 5684 5687 5691 5692 5693 5693 5697 5701 5693 5699 5715 5723 5743 5754 5743 5755 5758 5757 5738 5736 5744 5763 5783 5771 5787 5790 5788 5784 5778 5775 5785 5792
5670 5672 5676 5681 5682 5681 5683 5684 5657 5665 5671 5681 5679 5683 5682 5692 5695 5692 5690 5692 5707 5714 5715 5702 5695 5727 5743 5747 5742 5745 5757 5745 5722 5752 5774 5772 5760 5778 5797 5806 5798 5787 5777 5784 5790
5674 5682 5686 5689 5684 5682 5683 5670 5661 5666 5671 5670 5682 5677 5680 5685 5690 5690 5691 5697 5706 5713 5704 5705 5710 5739 5744 5750 5755 5744 5742 5775 5759 5789 5779 5784 5783 5776 5786 5792 5796 5791 5779 5767 5784
5686 5693 5691 5689 5686 5687 5684 5652 5664 5668 5668 5671 5661 5668 5669 5681 5679 5689 5689 5704 5701 5710 5717 5712 5700 5728 5739 5748 5753 5756 5766 5742 5759 5749 5742 5775 5775 5786 5773 5787 5791 5789 5782 5767 5770
5686 5691 5690 5690 5691 5692 5667 5661 5664 5671 5665 5659 5658 5661 5664 5671 5683 5685 5683 5687 5697 5702 5709 5715 5714 5717 5735 5727 5736 5733 5741 5754 5774 5772 5766 5768 5777 5798 5782 5786 5789 5790 5784 5776 5770
5693 5684 5691 5691 5681 5676 5669 5664 5650 5665 5668 5660 5661 5659 5658 5662 5669 5676 5665 5678 5688 5700 5694 5709 5717 5712 5717 5745 5755 5755 5751 5753 5742 5742 5766 5773 5768 5785 5788 5784 5791 5790 5785 5784 5785
5688 5686 5692 5689 5670 5670 5667 5665 5663 5661 5658 5656 5657 5658 5661 5656 5645 5654 5656 5677 5684 5692 5693 5704 5705 5701 5708 5721 5735 5739 5756 5766 5767 5776 5763 5758 5778 5778 5778 5778 5778 5769 5769 5771 5774
5682 5675 5681 5682 5675 5670 5663 5659 5656 5661 5657 5656 5654 5658 5655 5650 5652 5642 5653 5672 5678 5685 5677 5690 5705 5709 5708 5728 5742 5728 5739 5751 5764 5754 5767 5773 5772 5761 5767 5763 5758 5758 5758 5760 5767
5680 5674 5670 5670 5668 5666 5665 5658 5653 5648 5658 5658 5652 5651 5649 5646 5651 5645 5640 5661 5674 5668 5683 5691 5685 5705 5712 5721 5731 5737 5737 5745 5745 5761 5762 5780 5775 5775 5770 5768 5755 5756 5755 5756 5755
5675 5674 5672 5666 5662 5664 5652 5653 5649 5649 5650 5647 5644 5647 5651 5640 5642 5644 5643 5650 5651 5671 5681 5688 5676 5695 5694 5709 5723 5720 5729 5740 5742 5748 5757 5763 5754 5766 5768 5762 5754 5747 5744 5742 5744
5668 5670 5672 5647 5661 5661 5656 5652 5648 5649 5648 5647 5642 5643 5643 5638 5644 5649 5651 5653 5646 5648 5665 5665 5672 5681 5686 5696 5704 5698 5703 5718 5724 5733 5744 5744 5746 5753 5744 5741 5733 5732 5732 5730 5730